User: anonymous   Login
Location: G�ndlingen
(48.0142°N, 7.6396°E)
Time: 02:18:22
(UTC+00:00)
Language:

Cosmos 1408 - Orbit

View from above orbital plane
View from above orbital plane
View from above satellite
View from above satellite

Ground track
Ground track

The orbit data is extracted from the following two-line orbital elements,

1 13552U 82092A   20272.30542050 +.00001770 +00000-0 +63202-4 0  9991
2 13552 082.5700 175.7009 0019081 126.8713 233.4279 15.27973627079753
Epoch (UTC): 28 September 2020 07:19:48
Eccentricity: 0.0019081
inclination: 82.5700°
perigee height: 469 km
apogee height: 495 km
right ascension of ascending node: 175.7009°
argument of perigee: 126.8713°
revolutions per day: 15.27973627
mean anomaly at epoch: 233.4279°
orbit number at epoch: 7975

The dashed part of the orbit path shows where the satellite is in the earth's shadow,  

DLR